Weather History for Kaiser, MO

Change the Weather History Date:

Saturday, January 1, 2011

  Actual Average Record
Temperature  
Mean Temperature 24 °F -  
Max Temperature 28 °F 41 °F 69 °F (2005)
Min Temperature 19 °F 24 °F 3 °F (2001)
Degree Days  
Heating Degree Days 42    
Moisture  
Dew Point 5 °F    
Average Humidity 46    
Maximum Humidity 64    
Minimum Humidity 37    
Precipitation  
Precipitation 0.00 in - - ()
Sea Level Pressure  
Sea Level Pressure 30.12 in    
Wind  
Wind Speed 10 mph (West)    
Max Wind Speed 15 mph    
Max Gust Speed 24 mph    
Visibility 10 miles    
Events      
Averages and records for this station are not official NWS values.
T = Trace of Precipitation, MM = Missing Value Source: NWS Daily Summary

Daily Weather History Graph

Daily Weather History Graph

Search for Another Location

Airport:

Trip Planner

Search our weather history database for the weather conditions in past years. The results will help you decide how hot, cold, wet, or windy it might be!

Date:

Astronomy

Jan. 01, 2011 Rise Set
Actual Time 7:26 AM CST 5:01 PM CST
Civil Twilight 6:57 AM CST 5:30 PM CST
Nautical Twilight 6:24 AM CST 6:03 PM CST
Astronomical Twilight 5:52 AM CST 6:35 PM CST
Moon 5:00 AM CST (1/1) 2:38 PM CST (1/1)
Length of Visible Light 10h 33m
Length of Day
9h 34m
Waning Crescent, 7% of the Moon is Illuminated
Jan 1
Waning Crescent
Jan 4
New
Jan 12
First Quarter
Jan 19
Full
Jan 26
Last Quarter

Hourly Weather History & Observations

Time (CST) Temp. Windchill Dew Point Humidity Pressure Visibility Wind Dir Wind Speed Gust Speed Precip Events Conditions
12:15 AM 26.6 °F 16.8 °F 15.8 °F 64% 29.97 in 10.0 mi WNW 10.4 mph - N/A   Clear
12:35 AM 26.6 °F 16.8 °F 15.8 °F 64% 29.97 in 10.0 mi WNW 10.4 mph 17.3 mph N/A   Clear
1:15 AM 24.8 °F 12.9 °F 10.4 °F 54% 29.98 in 10.0 mi West 13.8 mph 19.6 mph N/A   Clear
1:35 AM 23.0 °F 13.1 °F 10.4 °F 59% 29.98 in 10.0 mi WNW 9.2 mph - N/A   Clear
1:55 AM 21.2 °F 8.9 °F 8.6 °F 58% 29.99 in 10.0 mi West 12.7 mph 16.1 mph N/A   Clear
2:15 AM 21.2 °F 10.1 °F 8.6 °F 58% 30.00 in 10.0 mi WNW 10.4 mph - N/A   Clear
2:35 AM 21.2 °F 10.9 °F 3.2 °F 46% 30.02 in 10.0 mi WNW 9.2 mph 17.3 mph N/A   Clear
2:55 AM 19.4 °F 5.5 °F 3.2 °F 49% 30.03 in 10.0 mi WNW 15.0 mph 19.6 mph N/A   Clear
3:15 AM 19.4 °F 9.5 °F 1.4 °F 46% 30.01 in 10.0 mi WNW 8.1 mph 20.7 mph N/A   Scattered Clouds
3:35 AM 19.4 °F 7.9 °F 3.2 °F 49% 30.01 in 10.0 mi WNW 10.4 mph - N/A   Overcast
3:55 AM 19.4 °F 7.9 °F 1.4 °F 46% 30.01 in 10.0 mi WNW 10.4 mph 19.6 mph N/A   Overcast
4:15 AM 19.4 °F 7.9 °F 1.4 °F 46% 30.02 in 10.0 mi WNW 10.4 mph 17.3 mph N/A   Overcast
4:35 AM 19.4 °F 7.2 °F 1.4 °F 46% 30.03 in 10.0 mi West 11.5 mph 19.6 mph N/A   Overcast
4:55 AM - - - N/A% 30.02 in 10.0 mi West 11.5 mph 16.1 mph N/A   Overcast
5:15 AM 19.4 °F 7.2 °F -0.4 °F 42% 30.04 in 10.0 mi West 11.5 mph 18.4 mph N/A   Overcast
5:35 AM 19.4 °F 8.6 °F 1.4 °F 46% 30.06 in 10.0 mi West 9.2 mph 18.4 mph N/A   Scattered Clouds
5:55 AM 19.4 °F 6.6 °F 1.4 °F 46% 30.08 in 10.0 mi West 12.7 mph 17.3 mph N/A   Clear
6:15 AM - - - N/A% 30.07 in 10.0 mi WNW 12.7 mph 17.3 mph N/A   Clear
6:35 AM 19.4 °F 6.6 °F 1.4 °F 46% 30.08 in 10.0 mi West 12.7 mph 16.1 mph N/A   Scattered Clouds
6:55 AM 19.4 °F 8.6 °F 3.2 °F 49% 30.08 in 10.0 mi West 9.2 mph 16.1 mph N/A   Mostly Cloudy
7:15 AM 19.4 °F 7.9 °F 1.4 °F 46% 30.09 in 10.0 mi West 10.4 mph - N/A   Mostly Cloudy
7:35 AM 19.4 °F 6.6 °F 3.2 °F 49% 30.10 in 10.0 mi West 12.7 mph 16.1 mph N/A   Mostly Cloudy
8:15 AM 19.4 °F 10.4 °F 3.2 °F 49% 30.12 in 10.0 mi West 6.9 mph 18.4 mph N/A   Clear
8:35 AM 19.4 °F 9.5 °F 5.0 °F 54% 30.12 in 10.0 mi West 8.1 mph 18.4 mph N/A   Clear
8:55 AM 19.4 °F 6.6 °F 3.2 °F 49% 30.14 in 10.0 mi West 12.7 mph 16.1 mph N/A   Clear
9:15 AM 19.4 °F 6.6 °F 3.2 °F 49% 30.15 in 10.0 mi West 12.7 mph 16.1 mph N/A   Clear
9:35 AM 21.2 °F 9.5 °F 3.2 °F 46% 30.17 in 10.0 mi West 11.5 mph 17.3 mph N/A   Clear
9:55 AM 21.2 °F 8.9 °F 3.2 °F 46% 30.17 in 10.0 mi West 12.7 mph 18.4 mph N/A   Clear
10:15 AM 21.2 °F 9.5 °F 3.2 °F 46% 30.17 in 10.0 mi West 11.5 mph 17.3 mph N/A   Clear
10:35 AM 23.0 °F 13.9 °F 3.2 °F 43% 30.18 in 10.0 mi West 8.1 mph - N/A   Clear
10:55 AM 24.8 °F 14.6 °F 3.2 °F 40% 30.18 in 10.0 mi West 10.4 mph 16.1 mph N/A   Clear
11:15 AM 24.8 °F 16.1 °F 3.2 °F 40% 30.17 in 10.0 mi WNW 8.1 mph 18.4 mph N/A   Clear
11:55 AM 26.6 °F 14.7 °F 5.0 °F 40% 30.16 in 10.0 mi WSW 15.0 mph 19.6 mph N/A   Clear
12:15 PM 26.6 °F 16.2 °F 6.8 °F 43% 30.16 in 10.0 mi West 11.5 mph 21.9 mph N/A   Clear
12:35 PM 26.6 °F 16.8 °F 3.2 °F 37% 30.15 in 10.0 mi West 10.4 mph 16.1 mph N/A   Clear
12:55 PM 26.6 °F 14.7 °F 5.0 °F 40% 30.15 in 10.0 mi West 15.0 mph 20.7 mph N/A   Clear
1:15 PM 28.4 °F 18.5 °F 5.0 °F 37% 30.15 in 10.0 mi WNW 11.5 mph 23.0 mph N/A   Clear
1:35 PM 28.4 °F 18.5 °F 5.0 °F 37% 30.15 in 10.0 mi West 11.5 mph 24.2 mph N/A   Clear
1:55 PM 28.4 °F 18.5 °F 6.8 °F 40% 30.15 in 10.0 mi West 11.5 mph 17.3 mph N/A   Clear
2:15 PM 28.4 °F 17.0 °F 5.0 °F 37% 30.15 in 10.0 mi West 15.0 mph 20.7 mph N/A   Clear
2:35 PM 28.4 °F 19.1 °F 5.0 °F 37% 30.15 in 10.0 mi WNW 10.4 mph 18.4 mph N/A   Clear
2:55 PM 28.4 °F 19.1 °F 5.0 °F 37% 30.16 in 10.0 mi WNW 10.4 mph 17.3 mph N/A   Clear
3:15 PM 28.4 °F 19.1 °F 5.0 °F 37% 30.17 in 10.0 mi West 10.4 mph - N/A   Clear
3:35 PM 28.4 °F 21.2 °F 6.8 °F 40% 30.18 in 10.0 mi WNW 6.9 mph 18.4 mph N/A   Clear
3:55 PM 28.4 °F 19.1 °F 6.8 °F 40% 30.18 in 10.0 mi West 10.4 mph 16.1 mph N/A   Clear
4:15 PM 28.4 °F 20.4 °F 6.8 °F 40% 30.18 in 10.0 mi West 8.1 mph - N/A   Clear
4:35 PM 28.4 °F 19.7 °F 6.8 °F 40% 30.19 in 10.0 mi West 9.2 mph - N/A   Clear
4:55 PM 28.4 °F 19.7 °F 5.0 °F 37% 30.20 in 10.0 mi West 9.2 mph 17.3 mph N/A   Clear
5:15 PM 26.6 °F 18.2 °F 6.8 °F 43% 30.20 in 10.0 mi West 8.1 mph - N/A   Clear
5:35 PM 26.6 °F 19.1 °F 6.8 °F 43% 30.20 in 10.0 mi WSW 6.9 mph - N/A   Clear
5:55 PM 26.6 °F 22.6 °F 6.8 °F 43% 30.20 in 10.0 mi WSW 3.5 mph - N/A   Clear
6:15 PM 26.6 °F 22.6 °F 6.8 °F 43% 30.21 in 10.0 mi West 3.5 mph - N/A   Clear
6:35 PM 24.8 °F 19.1 °F 6.8 °F 46% 30.22 in 10.0 mi West 4.6 mph - N/A   Clear
6:55 PM 24.8 °F - 8.6 °F 50% 30.22 in 10.0 mi Calm Calm - N/A   Clear
7:15 PM 24.8 °F 20.5 °F 8.6 °F 50% 30.24 in 10.0 mi West 3.5 mph - N/A   Clear
7:35 PM 24.8 °F 17.9 °F 8.6 °F 50% 30.25 in 10.0 mi West 5.8 mph - N/A   Clear
7:55 PM 24.8 °F 17.9 °F 8.6 °F 50% 30.25 in 10.0 mi WSW 5.8 mph - N/A   Clear
8:15 PM 24.8 °F 19.1 °F 8.6 °F 50% 30.26 in 10.0 mi West 4.6 mph - N/A   Clear
8:35 PM - - - N/A% 30.24 in 10.0 mi West 4.6 mph - N/A   Clear
8:55 PM 23.0 °F 18.4 °F 8.6 °F 54% 30.25 in 10.0 mi WSW 3.5 mph - N/A   Clear
9:15 PM 21.2 °F 16.4 °F 8.6 °F 58% 30.25 in 10.0 mi WSW 3.5 mph - N/A   Clear
9:35 PM 23.0 °F 18.4 °F 8.6 °F 54% 30.26 in 10.0 mi WSW 3.5 mph - N/A   Clear
9:55 PM 21.2 °F 14.9 °F 8.6 °F 58% 30.26 in 10.0 mi West 4.6 mph - N/A   Clear
10:15 PM 21.2 °F 14.9 °F 8.6 °F 58% 30.27 in 10.0 mi West 4.6 mph - N/A   Clear
10:35 PM 21.2 °F 14.9 °F 8.6 °F 58% 30.27 in 10.0 mi West 4.6 mph - N/A   Clear
10:55 PM 19.4 °F 14.3 °F 8.6 °F 63% 30.27 in 10.0 mi West 3.5 mph - N/A   Clear
11:15 PM 19.4 °F 14.3 °F 8.6 °F 63% 30.26 in 10.0 mi WNW 3.5 mph - N/A   Clear
11:35 PM - - - N/A% 30.25 in 10.0 mi Calm Calm - N/A   Clear
11:55 PM - - - N/A% 30.25 in 10.0 mi West 3.5 mph - N/A   Clear